Location: Rounton
(54.4000°N, 1.3500°W)
Time: 14:28:07
(UTC+00:00)

Transit 2A - Pass Details

Date: 30 November 2021
Orbit: 591 x 967 km, 66.7° (Epoch: 21 January)

Event Time Altitude Azimuth Distance (km) Brightness Sun altitude
Rises 11:18:01 0° 312° (NW) 3,663 9.1 13.5°
Reaches altitude 10° 11:21:41 10° 292° (WNW) 2,713 8.6 13.6°
Maximum altitude 11:25:12 16° 258° (WSW) 2,313 8.6 13.6°
Drops below altitude 10° 11:28:39 10° 224° (SW) 2,657 9.5 13.7°
Sets 11:32:13 0° 203° (SSW) 3,547 10.6 13.7°
